| time (UTC) | temp F | wind direction | speed knots | gust knots | rain 1hr in | rain 24hr in | rain mn in | humidity % | barometer mb |
| 20260903011501 | 80 | 195 | 0.0 | 0.9 | 0.00 | 0.00 | 0.00 | 89 | 1015.4 |
| 20260903010956 | 80 | 192 | 0.9 | 0.9 | 0.00 | 0.00 | 0.00 | 89 | 1015.3 |
| 20260903010451 | 80 | 180 | 0.0 | 1.7 | 0.00 | 0.00 | 0.00 | 88 | 1015.1 |
| 20260903005949 | 80 | 173 | 0.0 | 1.7 | 0.00 | 0.00 | 0.00 | 88 | 1015.1 |
| 20260903005444 | 81 | 195 | 0.9 | 1.7 | 0.00 | 0.00 | 0.00 | 88 | 1015.2 |
| 20260903004941 | 81 | 166 | 0.9 | 1.7 | 0.00 | 0.00 | 0.00 | 87 | 1015.0 |
| 20260903004435 | 81 | 180 | 0.0 | 0.9 | 0.00 | 0.00 | 0.00 | 86 | 1015.1 |
| 20260903003931 | 82 | 174 | 0.9 | 0.9 | 0.00 | 0.00 | 0.00 | 86 | 1015.1 |
| 20260903003431 | 82 | 180 | 0.0 | 0.9 | 0.00 | 0.00 | 0.00 | 85 | 1015.1 |
| 20260903002926 | 82 | 157 | 0.0 | 0.9 | 0.00 | 0.00 | 0.00 | 85 | 1015.1 |
| 20260903002421 | 83 | 172 | 0.0 | 0.9 | 0.00 | 0.00 | 0.00 | 84 | 1015.0 |
| 20260903001920 | 83 | 157 | 0.9 | 0.9 | 0.00 | 0.00 | 0.00 | 84 | 1015.0 |
| 20260903001415 | 84 | 157 | 0.0 | 0.9 | 0.00 | 0.00 | 0.00 | 82 | 1015.0 |
| 20260903000915 | 85 | 180 | 0.0 | 0.0 | 0.00 | 0.00 | 0.00 | 80 | 1014.9 |
| 20260903000410 | 85 | 180 | 0.0 | 0.0 | 0.00 | 0.00 | 0.00 | 80 | 1015.0 |
| 20260902235908 | 86 | 157 | 0.0 | 0.0 | 0.00 | 0.00 | 0.00 | 78 | 1014.9 |
| 20260902235404 | 87 | 157 | 0.0 | 0.9 | 0.00 | 0.00 | 0.00 | 76 | 1014.8 |
| 20260902234903 | 88 | 160 | 0.0 | 0.0 | 0.00 | 0.00 | 0.00 | 72 | 1014.9 |
| 20260902234358 | 89 | 99 | 0.0 | 0.0 | 0.00 | 0.00 | 0.00 | 71 | 1014.8 |
| 20260902233856 | 90 | 151 | 0.0 | 0.9 | 0.00 | 0.00 | 0.00 | 68 | 1014.7 |
| 20260902233351 | 90 | 270 | 0.0 | 0.9 | 0.00 | 0.00 | 0.00 | 66 | 1014.9 |
| 20260902232850 | 91 | 165 | 0.0 | 1.7 | 0.00 | 0.00 | 0.00 | 66 | 1014.9 |
| 20260902232345 | 91 | 279 | 0.0 | 2.6 | 0.00 | 0.00 | 0.00 | 65 | 1014.9 |
| 20260902231844 | 91 | 251 | 0.0 | 2.6 | 0.00 | 0.00 | 0.00 | 64 | 1014.9 |
| 20260902231339 | 91 | 264 | 0.0 | 2.6 | 0.00 | 0.00 | 0.00 | 64 | 1014.7 |
| 20260902230835 | 92 | 263 | 0.9 | 1.7 | 0.00 | 0.00 | 0.00 | 64 | 1015.0 |
| 20260902230334 | 92 | 187 | 0.9 | 4.3 | 0.00 | 0.00 | 0.00 | 63 | 1015.0 |
| 20260902225828 | 92 | 297 | 0.0 | 1.7 | 0.00 | 0.00 | 0.00 | 63 | 1014.9 |
| 20260902225323 | 93 | 286 | 0.0 | 2.6 | 0.00 | 0.00 | 0.00 | 64 | 1015.0 |
| 20260902224822 | 93 | 301 | 3.5 | 3.5 | 0.00 | 0.00 | 0.00 | 62 | 1015.2 |
| 20260902224317 | 93 | 150 | 0.0 | 2.6 | 0.00 | 0.00 | 0.00 | 63 | 1014.9 |
| 20260902223813 | 93 | 279 | 0.9 | 4.3 | 0.00 | 0.00 | 0.00 | 61 | 1014.9 |
| 20260902223313 | 93 | 139 | 0.0 | 6.1 | 0.00 | 0.00 | 0.00 | 61 | 1014.8 |
| 20260902222807 | 93 | 187 | 1.7 | 2.6 | 0.00 | 0.00 | 0.00 | 60 | 1014.9 |
| 20260902222301 | 94 | 198 | 1.7 | 2.6 | 0.00 | 0.00 | 0.00 | 60 | 1015.2 |
| 20260902221755 | 94 | 304 | 2.6 | 5.2 | 0.00 | 0.00 | 0.00 | 59 | 1014.9 |
| 20260902221254 | 95 | 337 | 1.7 | 4.3 | 0.00 | 0.00 | 0.00 | 58 | 1014.9 |
| 20260902220750 | 97 | 84 | 0.0 | 2.6 | 0.00 | 0.00 | 0.00 | 57 | 1015.2 |
| 20260902220249 | 97 | 308 | 3.5 | 3.5 | 0.00 | 0.00 | 0.00 | 55 | 1015.1 |
| 20260902215745 | 97 | 240 | 0.9 | 3.5 | 0.00 | 0.00 | 0.00 | 56 | 1015.3 |
| 20260902215240 | 98 | 277 | 0.0 | 2.6 | 0.00 | 0.00 | 0.00 | 55 | 1015.1 |
| 20260902214736 | 99 | 339 | 0.0 | 4.3 | 0.00 | 0.00 | 0.00 | 54 | 1015.1 |
| 20260902214234 | 98 | 187 | 0.9 | 1.7 | 0.00 | 0.00 | 0.00 | 56 | 1015.3 |
| 20260902213730 | 98 | 315 | 1.7 | 3.5 | 0.00 | 0.00 | 0.00 | 55 | 1015.1 |
| 20260902213231 | 98 | 60 | 0.0 | 4.3 | 0.00 | 0.00 | 0.00 | 55 | 1015.3 |
| 20260902212730 | 99 | 294 | 0.0 | 2.6 | 0.00 | 0.00 | 0.00 | 54 | 1015.2 |
| 20260902212227 | 98 | 259 | 2.6 | 2.6 | 0.00 | 0.00 | 0.00 | 54 | 1015.0 |
| 20260902211722 | 96 | 229 | 1.7 | 3.5 | 0.00 | 0.00 | 0.00 | 56 | 1015.0 |
| 20260902211218 | 96 | 180 | 0.0 | 4.3 | 0.00 | 0.00 | 0.00 | 57 | 1015.1 |
| 20260902210712 | 97 | 185 | 2.6 | 3.5 | 0.00 | 0.00 | 0.00 | 54 | 1015.3 |
| 20260902210208 | 96 | 270 | 0.0 | 3.5 | 0.00 | 0.00 | 0.00 | 56 | 1015.5 |
| 20260902205705 | 96 | 209 | 0.0 | 3.5 | 0.00 | 0.00 | 0.00 | 55 | 1015.4 |
| 20260902205201 | 99 | 234 | 5.2 | 5.2 | 0.00 | 0.00 | 0.00 | 52 | 1015.2 |
| 20260902204656 | 98 | 95 | 0.0 | 3.5 | 0.00 | 0.00 | 0.00 | 54 | 1015.4 |
| 20260902204150 | 97 | 274 | 0.0 | 3.5 | 0.00 | 0.00 | 0.00 | 53 | 1015.5 |
| 20260902203645 | 99 | 206 | 0.0 | 3.5 | 0.00 | 0.00 | 0.00 | 54 | 1015.4 |
| 20260902203140 | 100 | 209 | 0.0 | 5.2 | 0.00 | 0.00 | 0.00 | 52 | 1015.5 |
| 20260902202635 | 100 | 286 | 1.7 | 3.5 | 0.00 | 0.00 | 0.00 | 52 | 1015.5 |
| 20260902202132 | 99 | 266 | 2.6 | 6.1 | 0.00 | 0.00 | 0.00 | 51 | 1015.5 |
| 20260902201628 | 99 | 276 | 0.0 | 2.6 | 0.00 | 0.00 | 0.00 | 50 | 1015.5 |
| 20260902201127 | 99 | 280 | 0.0 | 7.0 | 0.00 | 0.00 | 0.00 | 54 | 1015.5 |
| 20260902200622 | 98 | 253 | 4.3 | 7.8 | 0.00 | 0.00 | 0.00 | 52 | 1015.5 |
| 20260902200118 | 99 | 225 | 1.7 | 2.6 | 0.00 | 0.00 | 0.00 | 53 | 1015.6 |
| 20260902195614 | 99 | 78 | 1.7 | 2.6 | 0.00 | 0.00 | 0.00 | 54 | 1015.6 |
| 20260902195113 | 98 | 285 | 2.6 | 3.5 | 0.00 | 0.00 | 0.00 | 53 | 1015.9 |
| 20260902194612 | 98 | 267 | 2.6 | 3.5 | 0.00 | 0.00 | 0.00 | 52 | 1015.9 |
| 20260902194108 | 97 | 337 | 0.9 | 5.2 | 0.00 | 0.00 | 0.00 | 54 | 1015.6 |
| 20260902193604 | 98 | 311 | 2.6 | 8.7 | 0.00 | 0.00 | 0.00 | 53 | 1015.9 |
| 20260902193103 | 96 | 282 | 1.7 | 3.5 | 0.00 | 0.00 | 0.00 | 56 | 1016.0 |
| 20260902192601 | 98 | 195 | 0.0 | 2.6 | 0.00 | 0.00 | 0.00 | 56 | 1016.1 |
| 20260902192101 | 98 | 261 | 0.9 | 3.5 | 0.00 | 0.00 | 0.00 | 53 | 1016.4 |
| 20260902191556 | 98 | 243 | 0.0 | 2.6 | 0.00 | 0.00 | 0.00 | 56 | 1016.4 |
| 20260902191050 | 97 | 293 | 2.6 | 3.5 | 0.00 | 0.00 | 0.00 | 57 | 1016.4 |
| 20260902190545 | 95 | 261 | 0.0 | 2.6 | 0.00 | 0.00 | 0.00 | 58 | 1016.4 |
| 20260902190041 | 94 | 339 | 1.7 | 3.5 | 0.00 | 0.00 | 0.00 | 61 | 1016.3 |
| 20260902185537 | 94 | 12 | 0.9 | 0.9 | 0.00 | 0.00 | 0.00 | 61 | 1016.4 |
| 20260902185032 | 93 | 185 | 0.0 | 2.6 | 0.00 | 0.00 | 0.00 | 62 | 1016.5 |
| 20260902184527 | 93 | 220 | 0.0 | 2.6 | 0.00 | 0.00 | 0.00 | 62 | 1016.3 |
| 20260902184022 | 94 | 221 | 1.7 | 5.2 | 0.00 | 0.00 | 0.00 | 61 | 1016.5 |
| 20260902183519 | 95 | 23 | 0.0 | 5.2 | 0.00 | 0.00 | 0.00 | 61 | 1016.4 |
| 20260902183015 | 96 | 264 | 0.0 | 4.3 | 0.00 | 0.00 | 0.00 | 58 | 1016.7 |
| 20260902182511 | 97 | 105 | 1.7 | 3.5 | 0.00 | 0.00 | 0.00 | 60 | 1016.4 |
| 20260902182006 | 98 | 328 | 1.7 | 3.5 | 0.00 | 0.00 | 0.00 | 58 | 1016.5 |
| 20260902181502 | 98 | 266 | 0.0 | 5.2 | 0.00 | 0.00 | 0.00 | 56 | 1016.5 |
| 20260902180957 | 98 | 20 | 0.9 | 3.5 | 0.00 | 0.00 | 0.00 | 57 | 1016.8 |
| 20260902180457 | 97 | 209 | 0.9 | 5.2 | 0.00 | 0.00 | 0.00 | 58 | 1017.0 |
| 20260902175952 | 96 | 285 | 2.6 | 6.1 | 0.00 | 0.00 | 0.00 | 56 | 1016.9 |
| 20260902175447 | 97 | 153 | 3.5 | 4.3 | 0.00 | 0.00 | 0.00 | 56 | 1017.0 |
| 20260902174943 | 96 | 212 | 3.5 | 3.5 | 0.00 | 0.00 | 0.00 | 57 | 1016.9 |
| 20260902174439 | 96 | 301 | 2.6 | 7.0 | 0.00 | 0.00 | 0.00 | 55 | 1017.1 |
| 20260902173935 | 96 | 235 | 1.7 | 4.3 | 0.00 | 0.00 | 0.00 | 58 | 1017.2 |
| 20260902173434 | 97 | 246 | 2.6 | 4.3 | 0.00 | 0.00 | 0.00 | 56 | 1017.0 |
| 20260902172929 | 96 | 289 | 2.6 | 5.2 | 0.00 | 0.00 | 0.00 | 57 | 1017.2 |
| 20260902172429 | 95 | 290 | 3.5 | 4.3 | 0.00 | 0.00 | 0.00 | 57 | 1017.0 |
| 20260902171924 | 96 | 187 | 1.7 | 4.3 | 0.00 | 0.00 | 0.00 | 57 | 1017.3 |
| 20260902171419 | 95 | 266 | 2.6 | 5.2 | 0.00 | 0.00 | 0.00 | 55 | 1017.4 |
| 20260902170915 | 95 | 288 | 3.5 | 5.2 | 0.00 | 0.00 | 0.00 | 58 | 1017.3 |
| 20260902170410 | 95 | 262 | 0.9 | 7.0 | 0.00 | 0.00 | 0.00 | 57 | 1017.4 |
| 20260902165906 | 95 | 299 | 4.3 | 4.3 | 0.00 | 0.00 | 0.00 | 58 | 1017.4 |
| 20260902165405 | 95 | 208 | 1.7 | 4.3 | 0.00 | 0.00 | 0.00 | 57 | 1017.3 |
| 20260902164900 | 95 | 264 | 1.7 | 2.6 | 0.00 | 0.00 | 0.00 | 61 | 1017.4 |
| 20260902164355 | 95 | 289 | 0.0 | 3.5 | 0.00 | 0.00 | 0.00 | 63 | 1017.4 |
| 20260902163854 | 94 | 120 | 0.0 | 6.1 | 0.00 | 0.00 | 0.00 | 64 | 1017.2 |
| 20260902163349 | 94 | 51 | 1.7 | 4.3 | 0.00 | 0.00 | 0.00 | 64 | 1017.5 |
| 20260902162847 | 95 | 285 | 3.5 | 6.1 | 0.00 | 0.00 | 0.00 | 61 | 1017.5 |
| 20260902162342 | 94 | 286 | 1.7 | 4.3 | 0.00 | 0.00 | 0.00 | 61 | 1017.5 |
| 20260902161837 | 95 | 350 | 0.0 | 1.7 | 0.00 | 0.00 | 0.00 | 64 | 1017.5 |
| 20260902161332 | 94 | 166 | 0.0 | 4.3 | 0.00 | 0.00 | 0.00 | 64 | 1017.5 |
| 20260902160828 | 94 | 275 | 1.7 | 2.6 | 0.00 | 0.00 | 0.00 | 65 | 1017.6 |
| 20260902160323 | 93 | 254 | 0.0 | 7.8 | 0.00 | 0.00 | 0.00 | 65 | 1017.7 |
| 20260902155821 | 94 | 198 | 0.0 | 2.6 | 0.00 | 0.00 | 0.00 | 66 | 1017.7 |
| 20260902155320 | 93 | 165 | 0.0 | 4.3 | 0.00 | 0.00 | 0.00 | 69 | 1017.7 |
| 20260902154816 | 92 | 291 | 2.6 | 4.3 | 0.00 | 0.00 | 0.00 | 66 | 1017.8 |
| 20260902154311 | 93 | 298 | 4.3 | 4.3 | 0.00 | 0.00 | 0.00 | 64 | 1017.9 |
| 20260902153810 | 92 | 279 | 0.9 | 3.5 | 0.00 | 0.00 | 0.00 | 67 | 1018.0 |
| 20260902153304 | 91 | 344 | 1.7 | 5.2 | 0.00 | 0.00 | 0.00 | 68 | 1018.0 |
| 20260902152800 | 91 | 184 | 3.5 | 4.3 | 0.00 | 0.00 | 0.00 | 68 | 1017.8 |
| 20260902152256 | 91 | 175 | 0.0 | 2.6 | 0.00 | 0.00 | 0.00 | 67 | 1018.0 |
| 20260902151756 | 91 | 291 | 4.3 | 6.1 | 0.00 | 0.00 | 0.00 | 68 | 1017.9 |
| 20260902151251 | 93 | 180 | 0.0 | 2.6 | 0.00 | 0.00 | 0.00 | 69 | 1017.7 |
| 20260902150746 | 93 | 180 | 0.0 | 1.7 | 0.00 | 0.00 | 0.00 | 70 | 1018.0 |
| 20260902150243 | 92 | 185 | 1.7 | 4.3 | 0.00 | 0.00 | 0.00 | 69 | 1018.1 |
| 20260902145741 | 92 | 176 | 1.7 | 1.7 | 0.00 | 0.00 | 0.00 | 68 | 1018.1 |
| 20260902145236 | 91 | 198 | 0.0 | 1.7 | 0.00 | 0.00 | 0.00 | 69 | 1017.9 |
| 20260902144732 | 90 | 270 | 0.0 | 3.5 | 0.00 | 0.00 | 0.00 | 71 | 1018.0 |
| 20260902144228 | 90 | 294 | 0.9 | 3.5 | 0.00 | 0.00 | 0.00 | 69 | 1017.8 |
| 20260902143717 | 89 | 289 | 0.0 | 5.2 | 0.00 | 0.00 | 0.00 | 70 | 1017.9 |
| 20260902143212 | 89 | 215 | 0.0 | 2.6 | 0.00 | 0.00 | 0.00 | 72 | 1018.0 |
| 20260902142708 | 89 | 225 | 1.7 | 2.6 | 0.00 | 0.00 | 0.00 | 72 | 1018.1 |
| 20260902142204 | 89 | 305 | 2.6 | 2.6 | 0.00 | 0.00 | 0.00 | 72 | 1017.8 |
| 20260902141704 | 89 | 260 | 2.6 | 2.6 | 0.00 | 0.00 | 0.00 | 73 | 1017.7 |
| 20260902141159 | 89 | 173 | 0.9 | 2.6 | 0.00 | 0.00 | 0.00 | 77 | 1017.9 |
| 20260902140654 | 87 | 270 | 0.9 | 3.5 | 0.00 | 0.00 | 0.00 | 75 | 1017.8 |
| 20260902140149 | 87 | 0 | 0.9 | 3.5 | 0.00 | 0.00 | 0.00 | 76 | 1017.8 |
| 20260902135648 | 89 | 200 | 0.0 | 1.7 | 0.00 | 0.00 | 0.00 | 76 | 1018.1 |
| 20260902135144 | 88 | 83 | 0.0 | 2.6 | 0.00 | 0.00 | 0.00 | 77 | 1017.8 |
| 20260902134639 | 87 | 234 | 0.0 | 3.5 | 0.00 | 0.00 | 0.00 | 77 | 1017.9 |
| 20260902134138 | 87 | 243 | 0.0 | 2.6 | 0.00 | 0.00 | 0.00 | 76 | 1017.9 |
| 20260902133633 | 89 | 200 | 0.0 | 1.7 | 0.00 | 0.00 | 0.00 | 74 | 1017.8 |
| 20260902133128 | 87 | 278 | 0.0 | 1.7 | 0.00 | 0.00 | 0.00 | 76 | 1017.9 |
| 20260902132623 | 85 | 243 | 0.0 | 2.6 | 0.00 | 0.00 | 0.00 | 80 | 1018.0 |
| 20260902132119 | 85 | 278 | 0.0 | 0.9 | 0.00 | 0.00 | 0.00 | 80 | 1017.9 |
| 20260902131615 | 85 | 289 | 0.0 | 2.6 | 0.00 | 0.00 | 0.00 | 80 | 1017.9 |
| 20260902131109 | 85 | 180 | 0.0 | 0.9 | 0.00 | 0.00 | 0.00 | 81 | 1017.9 |
| 20260902130606 | 84 | 97 | 0.0 | 1.7 | 0.00 | 0.00 | 0.00 | 80 | 1017.9 |
| 20260902125556 | 81 | 164 | 0.0 | 2.6 | 0.00 | 0.00 | 0.00 | 86 | 1017.8 |
| 20260902125051 | 80 | 281 | 1.7 | 2.6 | 0.00 | 0.00 | 0.00 | 87 | 1017.9 |
| 20260902124548 | 79 | 291 | 0.0 | 1.7 | 0.00 | 0.00 | 0.00 | 91 | 1017.9 |
| 20260902124048 | 77 | 90 | 0.0 | 1.7 | 0.00 | 0.00 | 0.00 | 99 | 1017.7 |
| 20260902123544 | 76 | 263 | 0.0 | 2.6 | 0.00 | 0.00 | 0.00 | 99 | 1017.7 |
| 20260902123043 | 77 | 23 | 0.0 | 0.0 | 0.00 | 0.00 | 0.00 | 99 | 1017.7 |
| 20260902122538 | 75 | 0 | 0.0 | 0.9 | 0.00 | 0.00 | 0.00 | 99 | 1017.7 |
| 20260902122034 | 75 | 8 | 0.0 | 0.0 | 0.00 | 0.00 | 0.00 | 99 | 1017.6 |
| 20260902121534 | 74 | 106 | 0.0 | 0.9 | 0.00 | 0.00 | 0.00 | 99 | 1017.5 |
| 20260902121029 | 72 | 0 | 0.0 | 0.9 | 0.00 | 0.00 | 0.00 | 99 | 1017.6 |
| 20260902120525 | 71 | 81 | 0.0 | 0.0 | 0.00 | 0.00 | 0.00 | 99 | 1017.6 |
| 20260902120021 | 71 | 14 | 0.0 | 0.0 | 0.00 | 0.00 | 0.00 | 99 | 1017.6 |
| 20260902115516 | 70 | 14 | 0.0 | 0.0 | 0.00 | 0.00 | 0.00 | 99 | 1017.7 |
| 20260902115013 | 70 | 14 | 0.0 | 0.0 | 0.00 | 0.00 | 0.00 | 99 | 1017.5 |
| 20260902114508 | 69 | 14 | 0.0 | 0.0 | 0.00 | 0.00 | 0.00 | 99 | 1017.5 |
| 20260902114008 | 69 | 14 | 0.0 | 0.0 | 0.00 | 0.00 | 0.00 | 99 | 1017.4 |
| 20260902113504 | 69 | 14 | 0.0 | 0.0 | 0.00 | 0.00 | 0.00 | 99 | 1017.3 |
| 20260902113004 | 69 | 14 | 0.0 | 0.0 | 0.00 | 0.00 | 0.00 | 99 | 1017.2 |
| 20260902112459 | 69 | 14 | 0.0 | 0.0 | 0.00 | 0.00 | 0.00 | 99 | 1017.2 |
| 20260902111955 | 68 | 0 | 0.0 | 0.0 | 0.00 | 0.00 | 0.00 | 99 | 1017.3 |
| 20260902111452 | 69 | 180 | 0.0 | 0.0 | 0.00 | 0.00 | 0.00 | 99 | 1017.2 |
| 20260902110947 | 69 | 188 | 0.0 | 0.0 | 0.00 | 0.00 | 0.00 | 99 | 1017.1 |
| 20260902110443 | 69 | 188 | 0.0 | 0.0 | 0.00 | 0.00 | 0.00 | 99 | 1017.1 |
| 20260902105938 | 69 | 188 | 0.0 | 0.0 | 0.00 | 0.00 | 0.00 | 99 | 1017.3 |
| 20260902105433 | 69 | 188 | 0.0 | 0.0 | 0.00 | 0.00 | 0.00 | 99 | 1017.2 |
| 20260902104927 | 69 | 188 | 0.0 | 0.0 | 0.00 | 0.00 | 0.00 | 99 | 1017.2 |
| 20260902104423 | 69 | 209 | 0.0 | 0.9 | 0.00 | 0.00 | 0.00 | 99 | 1017.2 |
| 20260902103922 | 69 | 173 | 0.0 | 0.0 | 0.00 | 0.00 | 0.00 | 99 | 1017.3 |
| 20260902103418 | 69 | 173 | 0.0 | 0.0 | 0.00 | 0.00 | 0.00 | 99 | 1017.2 |
| 20260902102913 | 68 | 173 | 0.0 | 0.0 | 0.00 | 0.00 | 0.00 | 99 | 1017.1 |
| 20260902102410 | 69 | 173 | 0.0 | 0.0 | 0.00 | 0.00 | 0.00 | 99 | 1017.0 |
| 20260902101906 | 69 | 173 | 0.0 | 0.0 | 0.00 | 0.00 | 0.00 | 99 | 1017.1 |
| 20260902101401 | 69 | 173 | 0.0 | 0.0 | 0.00 | 0.00 | 0.00 | 99 | 1017.3 |
| 20260902100900 | 69 | 187 | 0.0 | 0.0 | 0.00 | 0.00 | 0.00 | 99 | 1017.2 |
| 20260902100354 | 69 | 180 | 0.0 | 0.0 | 0.00 | 0.00 | 0.00 | 99 | 1017.1 |
| 20260902095849 | 69 | 180 | 0.0 | 0.0 | 0.00 | 0.00 | 0.00 | 99 | 1017.2 |
| 20260902095349 | 69 | 180 | 0.0 | 0.0 | 0.00 | 0.00 | 0.00 | 99 | 1017.0 |
| 20260902094843 | 69 | 180 | 0.0 | 0.0 | 0.00 | 0.00 | 0.00 | 99 | 1017.1 |
| 20260902094340 | 69 | 180 | 0.0 | 0.0 | 0.00 | 0.00 | 0.00 | 99 | 1017.0 |
| 20260902093838 | 69 | 180 | 0.0 | 0.0 | 0.00 | 0.00 | 0.00 | 99 | 1017.1 |
| 20260902093334 | 69 | 180 | 0.0 | 0.0 | 0.00 | 0.00 | 0.00 | 99 | 1017.1 |
| 20260902092833 | 70 | 180 | 0.0 | 0.0 | 0.00 | 0.00 | 0.00 | 99 | 1017.0 |
| 20260902092329 | 69 | 195 | 0.0 | 0.0 | 0.00 | 0.00 | 0.00 | 99 | 1017.1 |
| 20260902091829 | 69 | 195 | 0.0 | 0.0 | 0.00 | 0.00 | 0.00 | 99 | 1017.1 |
| 20260902091324 | 70 | 195 | 0.0 | 0.9 | 0.00 | 0.00 | 0.00 | 99 | 1016.9 |
| 20260902090821 | 70 | 180 | 0.0 | 0.0 | 0.00 | 0.00 | 0.00 | 99 | 1017.0 |
| 20260902090320 | 70 | 0 | 0.0 | 0.0 | 0.00 | 0.00 | 0.00 | 99 | 1016.8 |
| 20260902085819 | 70 | 0 | 0.0 | 0.0 | 0.00 | 0.00 | 0.00 | 99 | 1016.7 |
| 20260902085315 | 69 | 0 | 0.0 | 0.0 | 0.00 | 0.00 | 0.00 | 99 | 1016.8 |
| 20260902084810 | 70 | 0 | 0.0 | 0.0 | 0.00 | 0.00 | 0.00 | 99 | 1016.9 |
| 20260902084307 | 70 | 0 | 0.0 | 0.0 | 0.00 | 0.00 | 0.00 | 99 | 1016.4 |
| 20260902083801 | 70 | 0 | 0.0 | 0.0 | 0.00 | 0.00 | 0.00 | 99 | 1016.7 |
| 20260902083256 | 70 | 0 | 0.0 | 0.0 | 0.00 | 0.00 | 0.00 | 99 | 1016.4 |
| 20260902082751 | 70 | 0 | 0.0 | 0.0 | 0.00 | 0.00 | 0.00 | 99 | 1016.3 |
| 20260902082247 | 70 | 0 | 0.0 | 0.0 | 0.00 | 0.00 | 0.00 | 99 | 1016.5 |
| 20260902081743 | 70 | 0 | 0.0 | 0.0 | 0.00 | 0.00 | 0.00 | 99 | 1016.4 |
| 20260902081239 | 70 | 0 | 0.0 | 0.0 | 0.00 | 0.00 | 0.00 | 99 | 1016.4 |
| 20260902080734 | 70 | 0 | 0.0 | 0.0 | 0.00 | 0.00 | 0.00 | 99 | 1016.2 |
| 20260902080231 | 70 | 0 | 0.0 | 0.0 | 0.00 | 0.00 | 0.00 | 99 | 1016.2 |
| 20260902075730 | 70 | 0 | 0.0 | 0.0 | 0.00 | 0.00 | 0.00 | 99 | 1016.3 |
| 20260902075226 | 70 | 0 | 0.0 | 0.0 | 0.00 | 0.00 | 0.00 | 99 | 1016.2 |
| 20260902074726 | 71 | 0 | 0.0 | 0.0 | 0.00 | 0.00 | 0.00 | 99 | 1016.2 |
| 20260902074221 | 71 | 0 | 0.0 | 0.0 | 0.00 | 0.00 | 0.00 | 99 | 1016.4 |
| 20260902073717 | 71 | 0 | 0.0 | 0.0 | 0.00 | 0.00 | 0.00 | 99 | 1016.3 |
| 20260902073213 | 71 | 0 | 0.0 | 0.0 | 0.00 | 0.00 | 0.00 | 99 | 1016.4 |
| 20260902072709 | 71 | 0 | 0.0 | 0.0 | 0.00 | 0.00 | 0.00 | 99 | 1016.1 |
| 20260902072205 | 71 | 165 | 0.0 | 0.0 | 0.00 | 0.00 | 0.00 | 99 | 1016.3 |
| 20260902071701 | 71 | 165 | 0.0 | 0.0 | 0.00 | 0.00 | 0.00 | 99 | 1016.2 |
| 20260902071155 | 71 | 172 | 0.0 | 0.0 | 0.00 | 0.00 | 0.00 | 99 | 1016.3 |
| 20260902070652 | 71 | 172 | 0.0 | 0.0 | 0.00 | 0.00 | 0.00 | 99 | 1016.2 |
| 20260902070151 | 72 | 172 | 0.0 | 0.9 | 0.00 | 0.00 | 0.00 | 99 | 1016.3 |
| 20260902065650 | 71 | 180 | 0.0 | 0.0 | 0.00 | 0.00 | 0.00 | 99 | 1016.0 |
| 20260902065146 | 72 | 180 | 0.0 | 0.0 | 0.00 | 0.00 | 0.00 | 99 | 1016.3 |
| 20260902064641 | 72 | 180 | 0.0 | 0.9 | 0.00 | 0.00 | 0.00 | 99 | 1016.2 |
| 20260902064136 | 71 | 262 | 0.0 | 0.0 | 0.00 | 0.00 | 0.00 | 99 | 1016.2 |
| 20260902063632 | 71 | 262 | 0.0 | 0.0 | 0.00 | 0.00 | 0.00 | 99 | 1016.3 |
| 20260902063127 | 72 | 262 | 0.0 | 0.0 | 0.00 | 0.00 | 0.00 | 99 | 1016.4 |
| 20260902062625 | 71 | 262 | 0.0 | 0.0 | 0.00 | 0.00 | 0.00 | 99 | 1016.2 |
| 20260902062121 | 71 | 262 | 0.0 | 0.0 | 0.00 | 0.00 | 0.00 | 99 | 1016.3 |
| 20260902061620 | 71 | 0 | 0.0 | 0.0 | 0.00 | 0.00 | 0.00 | 99 | 1016.2 |
| 20260902061116 | 71 | 0 | 0.0 | 0.0 | 0.00 | 0.00 | 0.00 | 99 | 1015.9 |
| 20260902060613 | 72 | 0 | 0.0 | 0.0 | 0.00 | 0.00 | 0.00 | 99 | 1016.1 |
| 20260902060109 | 71 | 0 | 0.0 | 0.0 | 0.00 | 0.00 | 0.00 | 99 | 1016.1 |
| 20260902055604 | 72 | 0 | 0.0 | 0.0 | 0.00 | 0.00 | 0.00 | 99 | 1016.2 |
| 20260902055059 | 72 | 0 | 0.0 | 0.0 | 0.00 | 0.00 | 0.00 | 99 | 1016.3 |
| 20260902054554 | 72 | 0 | 0.0 | 0.0 | 0.00 | 0.00 | 0.00 | 99 | 1016.2 |
| 20260902054050 | 72 | 0 | 0.0 | 0.0 | 0.00 | 0.00 | 0.00 | 99 | 1016.2 |
| 20260902053544 | 72 | 0 | 0.0 | 0.0 | 0.00 | 0.00 | 0.00 | 99 | 1016.3 |
| 20260902053039 | 73 | 0 | 0.0 | 0.0 | 0.00 | 0.00 | 0.00 | 99 | 1016.2 |
| 20260902052533 | 73 | 354 | 0.0 | 0.9 | 0.00 | 0.00 | 0.00 | 99 | 1016.1 |
| 20260902052029 | 73 | 180 | 0.0 | 0.0 | 0.00 | 0.00 | 0.00 | 99 | 1016.2 |
| 20260902051529 | 73 | 180 | 0.0 | 0.0 | 0.00 | 0.00 | 0.00 | 99 | 1016.4 |
| 20260902051027 | 73 | 180 | 0.0 | 0.0 | 0.00 | 0.00 | 0.00 | 99 | 1016.2 |
| 20260902050522 | 73 | 0 | 0.0 | 0.0 | 0.00 | 0.00 | 0.00 | 99 | 1016.3 |
| 20260902050018 | 73 | 0 | 0.0 | 0.0 | 0.00 | 0.00 | 0.00 | 99 | 1016.2 |
| 20260902045513 | 73 | 0 | 0.0 | 0.0 | 0.00 | 0.00 | 0.00 | 99 | 1016.3 |
| 20260902045010 | 74 | 60 | 0.0 | 0.0 | 0.00 | 0.00 | 0.00 | 99 | 1016.2 |
| 20260902044504 | 74 | 160 | 0.0 | 0.0 | 0.00 | 0.00 | 0.00 | 99 | 1016.1 |
| 20260902044000 | 74 | 160 | 0.0 | 0.0 | 0.00 | 0.00 | 0.00 | 99 | 1016.3 |
| 20260902043454 | 74 | 160 | 0.0 | 0.0 | 0.00 | 0.00 | 0.00 | 98 | 1016.2 |
| 20260902042950 | 74 | 160 | 0.0 | 0.0 | 0.00 | 0.00 | 0.00 | 98 | 1016.2 |
| 20260902042449 | 75 | 160 | 0.0 | 0.0 | 0.00 | 0.00 | 0.00 | 98 | 1016.1 |
| 20260902041944 | 75 | 160 | 0.0 | 0.0 | 0.00 | 0.00 | 0.00 | 97 | 1016.3 |
| 20260902041439 | 75 | 160 | 0.0 | 0.0 | 0.00 | 0.00 | 0.00 | 97 | 1016.3 |
| 20260902040939 | 75 | 160 | 0.0 | 0.0 | 0.00 | 0.00 | 0.00 | 97 | 1016.1 |
| 20260902040433 | 75 | 148 | 0.0 | 0.0 | 0.00 | 0.00 | 0.00 | 97 | 1016.5 |
| 20260902035932 | 75 | 157 | 0.0 | 0.0 | 0.00 | 0.00 | 0.00 | 96 | 1016.4 |
| 20260902035427 | 76 | 157 | 0.0 | 0.0 | 0.00 | 0.00 | 0.00 | 96 | 1016.1 |
| 20260902034927 | 76 | 157 | 0.0 | 0.0 | 0.00 | 0.00 | 0.00 | 96 | 1016.4 |
| 20260902034422 | 76 | 180 | 0.0 | 0.0 | 0.00 | 0.00 | 0.00 | 95 | 1016.3 |
| 20260902033921 | 76 | 180 | 0.0 | 0.9 | 0.00 | 0.00 | 0.00 | 95 | 1016.3 |
| 20260902033415 | 76 | 180 | 0.0 | 0.9 | 0.00 | 0.00 | 0.00 | 95 | 1016.2 |
| 20260902032914 | 76 | 180 | 0.0 | 0.0 | 0.00 | 0.00 | 0.00 | 95 | 1016.2 |
| 20260902032408 | 76 | 180 | 0.0 | 0.0 | 0.00 | 0.00 | 0.00 | 94 | 1016.3 |
| 20260902031903 | 77 | 180 | 0.0 | 0.9 | 0.00 | 0.00 | 0.00 | 93 | 1016.1 |
| 20260902031359 | 77 | 157 | 0.0 | 0.0 | 0.00 | 0.00 | 0.00 | 93 | 1016.2 |
| 20260902030855 | 77 | 157 | 0.0 | 0.0 | 0.00 | 0.00 | 0.00 | 92 | 1016.2 |
| 20260902030349 | 78 | 157 | 0.0 | 0.0 | 0.00 | 0.00 | 0.00 | 91 | 1016.2 |
| 20260902025847 | 79 | 151 | 0.9 | 0.9 | 0.00 | 0.00 | 0.00 | 89 | 1016.5 |
| 20260902025344 | 79 | 255 | 0.0 | 0.0 | 0.00 | 0.00 | 0.00 | 86 | 1016.4 |
| 20260902024838 | 80 | 255 | 0.0 | 0.9 | 0.00 | 0.00 | 0.00 | 86 | 1016.2 |
| 20260902024334 | 80 | 203 | 0.0 | 1.7 | 0.00 | 0.00 | 0.00 | 85 | 1016.3 |
| 20260902023829 | 80 | 209 | 0.0 | 1.7 | 0.00 | 0.00 | 0.00 | 86 | 1016.4 |
| 20260902023324 | 80 | 161 | 1.7 | 1.7 | 0.00 | 0.00 | 0.00 | 85 | 1016.2 |
| 20260902022823 | 80 | 178 | 2.6 | 2.6 | 0.00 | 0.00 | 0.00 | 85 | 1016.1 |
| 20260902022319 | 80 | 237 | 0.0 | 2.6 | 0.00 | 0.00 | 0.00 | 85 | 1016.1 |
| 20260902021815 | 80 | 188 | 0.0 | 1.7 | 0.00 | 0.00 | 0.00 | 87 | 1016.0 |
| 20260902021309 | 80 | 172 | 1.7 | 2.6 | 0.00 | 0.00 | 0.00 | 87 | 1016.1 |
| 20260902020805 | 79 | 195 | 0.9 | 3.5 | 0.00 | 0.00 | 0.00 | 87 | 1016.2 |
| 20260902020301 | 80 | 206 | 0.0 | 1.7 | 0.00 | 0.00 | 0.00 | 88 | 1016.1 |
| 20260902015756 | 80 | 157 | 0.0 | 2.6 | 0.00 | 0.00 | 0.00 | 87 | 1016.2 |
| 20260902015252 | 80 | 192 | 0.9 | 0.9 | 0.00 | 0.00 | 0.00 | 88 | 1016.1 |
| 20260902014748 | 80 | 206 | 0.0 | 1.7 | 0.00 | 0.00 | 0.00 | 89 | 1016.2 |
| 20260902014244 | 80 | 203 | 0.0 | 2.6 | 0.00 | 0.00 | 0.00 | 89 | 1016.3 |
| 20260902013742 | 79 | 188 | 0.0 | 0.9 | 0.00 | 0.00 | 0.00 | 89 | 1016.2 |
| 20260902013238 | 80 | 199 | 0.0 | 1.7 | 0.00 | 0.00 | 0.00 | 89 | 1016.1 |
| 20260902012733 | 80 | 195 | 0.9 | 0.9 | 0.00 | 0.00 | 0.00 | 89 | 1016.0 |
| 20260902012229 | 80 | 180 | 0.0 | 1.7 | 0.00 | 0.00 | 0.00 | 89 | 1016.2 |
| 20260902011724 | 80 | 157 | 0.0 | 0.0 | 0.00 | 0.00 | 0.00 | 89 | 1015.8 |